Regional Weather Roundup
Issued by NWS

Home | Current Version | Previous Version | Graphics & Text | Print | Product List | Glossary Off
Versions: 1 2 3 4 5 6 7 8 9 10 11 12 13 14 15 16 17 18 19 20 21 22 23 24 25 26 27 28 29 30 31 32 33 34 35 36 37 38 39 40 41 42 43 44 45 46 47 48 49 50

000
ASUS43 KLSX 301407
RWRMO

WEATHER SUMMARY FOR MISSOURI
NATIONAL WEATHER SERVICE SPRINGFIELD MO
900 AM CDT TUE JUN 30 2015

NOTE: "FAIR" INDICATES FEW OR NO CLOUDS BELOW 12,000 FEET WITH NO
       SIGNIFICANT WEATHER AND/OR OBSTRUCTIONS TO VISIBILITY.
       CURRENT SKY AND/OR WEATHER CONDITIONS ARE NOT AVAILABLE FOR
       CHILLICOTHE AND FARMINGTON.

MOZ001>031-035>038-043-044-053-054-301500-
...NORTHERN AND WESTERN MISSOURI...

CITY           SKY/WX    TMP DP  RH WIND       PRES   REMARKS
KANSAS CTY INT CLOUDY    73  65  75 W6        29.96R
KANSAS C DTWN  MOSUNNY   76  66  71 SW3       29.94S
LEE`S SUMMIT   MOSUNNY   74  65  73 W7        29.96R
ST JOSEPH      SUNNY     72  67  84 CALM      29.95S
CHILLICOTHE      N/A     74  66  76 W3        29.93R
KIRKSVILLE     SUNNY     70  64  81 W7        29.92R

$$
MOZ066>068-077>081-088>096-101>105-301500-
...SOUTHWEST MISSOURI...

CITY           SKY/WX    TMP DP  RH WIND       PRES   REMARKS
SPRINGFIELD    SUNNY     75  63  66 W8        30.00R
JOPLIN         MOSUNNY   73  67  81 SW7       30.00R

$$
MOZ032>034-039>042-045>050-055>058-069>072-301500-
...CENTRAL MISSOURI...

CITY           SKY/WX    TMP DP  RH WIND       PRES   REMARKS
COLUMBIA       MOSUNNY   73  68  84 SW7       29.93S
JEFFERSON CITY SUNNY     73  66  78 W3        29.93R
ROLLA          PTSUNNY   70  67  90 SW9       29.95R
SEDALIA        MOSUNNY   75  66  73 W6        29.95R
WHITEMAN AFB   SUNNY     75  66  73 W8        29.93S
WARRENSBURG    PTSUNNY   72  64  78 W6        29.94S
OSAGE BEACH    SUNNY     73  64  73 W6        29.96R

$$
MOZ051-052-059>065-301500-
...EAST CENTRAL MISSOURI...

CITY           SKY/WX    TMP DP  RH WIND       PRES   REMARKS
ST LOUIS INTL  MOSUNNY   75  66  73 W5        29.91R
SPIRIT OF STL  SUNNY     73  69  87 CALM      29.90R
ST CHARLES     SUNNY     72  68  87 W3        29.89R

$$
MOZ072>076-082>087-097>100-106>115-301500-
...SOUTH CENTRAL AND SOUTHEAST MISSOURI...

CITY           SKY/WX    TMP DP  RH WIND       PRES   REMARKS
CAPE GIRARDEAU SUNNY     74  68  81 W6        29.91S
FARMINGTON     SUNNY     72  64  78 NW5       29.98R
POPLAR BLUFF   SUNNY     74  66  76 W5        29.93R
WEST PLAINS    SUNNY     71  65  81 W6        30.00R

$$



USA.gov is the U.S. government's official web portal to all federal, state and local government web resources and services.